{"data":{"norad_id":26410,"epoch":"2026-08-16T08:33:20.293632Z","epoch_age_seconds":3047534,"freshness":"OLD","line1":"1 26410U 00041A   26228.35648488  .00204628 -13535-2  00000+0 0  9995","line2":"2 26410 149.5559  61.8704 9119992 279.7536 359.6603  0.44877167 20578","mean_motion":0.44877167,"eccentricity":0.9119992,"inclination_deg":149.5559,"raan_deg":61.8704,"arg_perigee_deg":279.7536,"mean_anomaly_deg":359.6603,"bstar":0,"rev_number":2057,"period_min":3208.7586990507,"perigee_km":-36.449468972032,"apogee_km":131408.12728368,"semimajor_km":72063.975907355,"source":"CELESTRAK","updated_at":"2026-09-01T09:07:28.330703Z"}}